Regional Weather Roundup
Issued by NWS

Home | Current Version | Previous Version | Text Only | Print | Product List | Glossary Off
Versions: 1 2 3 4 5 6 7 8 9 10 11 12 13 14 15 16 17 18 19 20 21 22 23 24 25 26 27 28 29 30 31 32 33 34 35 36 37 38 39 40 41 42 43 44 45 46 47 48 49 50

000
ASUS43 KDTX 271201
RWRMI
MICHIGAN HOURLY REGIONAL WEATHER ROUNDUP
NATIONAL WEATHER SERVICE DETROIT/PONTIAC MI
800 AM EDT MON APR 27 2015

NOTE: "FAIR" INDICATES FEW OR NO CLOUDS BELOW 12,000 FEET WITH NO
SIGNIFICANT WEATHER AND/OR OBSTRUCTION TO VISIBILITY.

MIZ047>049-052>055-059>063-066>070-074>076-081>083-271300-
SOUTHEAST LOWER MICHIGAN

CITY           SKY/WX    TMP DP  RH WIND       PRES   REMARKS
ADRIAN         CLOUDY    43  34  70 N12       29.95S
6HR MIN TEMP:  37; 6HR MAX TEMP:  43;

ALMA           CLOUDY    42  35  75 NW7       29.99R
ANN ARBOR      CLOUDY    42  33  70 N10       29.95R
BAD AXE        CLOUDY    37  35  92 N13G20    29.97S WCI  29
CARO           LGT RAIN  38  37  93 N7        29.97S WCI  33
DETROIT CITY   LGT RAIN  41  36  82 N9        29.95R
6HR MIN TEMP:  40; 6HR MAX TEMP:  44; 6HR PCP: TRACE;

DETROIT        CLOUDY    45  36  70 NW10      29.95R
6HR MIN TEMP:  40; 6HR MAX TEMP:  45; 6HR PCP: TRACE;

FLINT          CLOUDY    41  36  82 N8        29.98R
6HR MIN TEMP:  41; 6HR MAX TEMP:  44; 6HR PCP: TRACE;

HILLSDALE      SUNNY     40  34  79 N8        29.94S WCI  35
6HR MIN TEMP:  35; 6HR MAX TEMP:  43;

HOWELL         CLOUDY    40  37  88 N6        29.96S
6HR MIN TEMP:  35; 6HR MAX TEMP:  40;


CITY           SKY/WX    TMP DP  RH WIND       PRES   REMARKS
JACKSON        PTSUNNY   41  32  70 N10       29.96S
6HR MIN TEMP:  35; 6HR MAX TEMP:  41;

LAMBERTVILLE   PTSUNNY   43  34  70 N7        29.94S
LANSING        CLOUDY    42  33  70 NW8       29.99R
6HR MIN TEMP:  36; 6HR MAX TEMP:  42;

LAPEER         CLOUDY    38  35  89 N9G17     29.97R WCI  31
MASON          CLOUDY    41  32  71 N7        29.97R
MONROE         CLOUDY    43  34  70 N5        29.93R
PONTIAC        CLOUDY    40  35  83 N10       29.94R WCI  33
6HR MIN TEMP:  39; 6HR MAX TEMP:  41; 6HR PCP: TRACE;

PORT HOPE        N/A     39  35  86 N13G22    29.95R WCI  31
6HR MIN TEMP:  38; 6HR MAX TEMP:  40; 6HR PCP:  0.01;

PORT HURON     CLOUDY    37  36  93 N7        29.94S WCI  32
TRI CITIES     CLOUDY    43  35  73 N13       29.99R
6HR MIN TEMP:  42; 6HR MAX TEMP:  45; 6HR PCP: TRACE;

MIDLAND        CLOUDY    43  33  67 N7        29.98R
TROY           CLOUDY    42  35  76 N12       29.96R
SAGINAW HB     DRIZZLE   41  41 100 N8        29.99R
$$
MIZ043>046-050>051-056>058-064>065-071>073-077>080-271300-
SOUTHWEST LOWER MICHIGAN

CITY           SKY/WX    TMP DP  RH WIND       PRES   REMARKS
BATTLE CREEK   PTSUNNY   40  31  70 N8        29.98S WCI  34
6HR MIN TEMP:  39; 6HR MAX TEMP:  42;

BENTON HARBOR  SUNNY     38  34  85 N9        30.02R WCI  31
6HR MIN TEMP:  35; 6HR MAX TEMP:  39;

BIG RAPIDS     CLOUDY    40  33  77 CALM      30.01R
6HR MIN TEMP:  37; 6HR MAX TEMP:  42;

COLDWATER      SUNNY     40  32  72 N6        29.96S
6HR MIN TEMP:  37; 6HR MAX TEMP:  42;

FREMONT        CLOUDY    40  33  77 N9        30.02S WCI  34
HOLLAND        CLOUDY    42  33  70 VRB7      30.02S
6HR MIN TEMP:  40; 6HR MAX TEMP:  44;

GRAND RAPIDS   PTSUNNY   41  31  67 N10       30.01R
6HR MIN TEMP:  39; 6HR MAX TEMP:  42;

IONIA          FAIR      41  32  71 N12       29.99R
KALAMAZOO      SUNNY     41  32  70 N10       29.99S
6HR MIN TEMP:  36; 6HR MAX TEMP:  41;

LUDINGTON      CLOUDY    40  35  80 N8        30.07R
6HR MIN TEMP:  40; 6HR MAX TEMP:  42;

MARSHALL       CLOUDY    39  32  76 NW6       29.96F WCI  35
MOUNT PLEASANT CLOUDY    42  34  72 N7        29.99R
6HR MIN TEMP:  41; 6HR MAX TEMP:  42;

MUSKEGON       PTSUNNY   42  33  70 N8        30.04S
6HR MIN TEMP:  39; 6HR MAX TEMP:  43;

SOUTH HAVEN    SUNNY     40  35  81 N9G16     30.01S WCI  34
$$
MIZ016>042-271300-
NORTHERN LOWER MICHIGAN

CITY           SKY/WX    TMP DP  RH WIND       PRES   REMARKS
BEAVER ISLAND  CLOUDY    41  33  74 N7        30.07S
6HR MIN TEMP:  40; 6HR MAX TEMP:  41;

BELLAIRE       CLOUDY    41  34  74 N10       30.05S
6HR MIN TEMP:  41; 6HR MAX TEMP:  42;

CADILLAC       MOSUNNY   38  33  81 N8        30.00S WCI  32
CHARLEVOIX     CLOUDY    38  35  87 N5        30.09R WCI  35
6HR MIN TEMP:  37; 6HR MAX TEMP:  39;

FRANKFORT      CLOUDY    42  32  67 N5        30.07S
GAYLORD        CLOUDY    38  34  85 N8        30.01S WCI  32
6HR MIN TEMP:  37; 6HR MAX TEMP:  40;

GRAYLING       CLOUDY    40  33  77 CALM      30.01S
6HR MIN TEMP:  39; 6HR MAX TEMP:  41;

HARBOR SPRINGS CLOUDY    40  33  74 N7        30.05R
HOUGHTON LAKE  CLOUDY    40  32  73 N7        30.00S
6HR MIN TEMP:  39; 6HR MAX TEMP:  41;

MANISTEE       CLOUDY    39  32  75 N5        30.07S
OSCODA         CLOUDY    40  34  80 N13       29.98S WCI  33
PELLSTON       CLOUDY    41  33  73 N10       30.05R
6HR MIN TEMP:  40; 6HR MAX TEMP:  43;

ROGERS CITY    CLOUDY    40  35  83 NW9       30.03R WCI  33
TRAVERSE CITY  CLOUDY    42  34  73 N8        30.04S
6HR MIN TEMP:  41; 6HR MAX TEMP:  42;

$$
MIZ007>008-015-271300-
EASTERN UPPER MICHIGAN

CITY           SKY/WX    TMP DP  RH WIND       PRES   REMARKS
KINROSS        CLOUDY    39  36  87 NW7       30.04S WCI  34
6HR MIN TEMP:  37; 6HR MAX TEMP:  39;

MACKINAC ISLAN CLOUDY    40  33  76 N7        30.05R
6HR MIN TEMP:  39; 6HR MAX TEMP:  40;

NEWBERRY       MOSUNNY   39  33  78 N9G18     30.07R WCI  33
S. S. MARIE    PTSUNNY   41  32  70 N8        30.04R
6HR MIN TEMP:  40; 6HR MAX TEMP:  41;

$$
MIZ004>006-011>014-085-271300-
CENTRAL UPPER MICHIGAN

CITY           SKY/WX    TMP DP  RH WIND       PRES   REMARKS
MANISTIQUE     CLOUDY    39  34  82 NW5       30.09R
ESCANABA       SUNNY     37  28  70 N7        30.11S WCI  32
6HR MIN TEMP:  34; 6HR MAX TEMP:  43;

MENOMINEE      SUNNY     37  28  70 N9        30.11R WCI  31
6HR MIN TEMP:  36; 6HR MAX TEMP:  41;

SAWYER-GWINN   PTSUNNY   34  28  80 N6        30.12R WCI  29
$$
MIZ001>003-009>011-084-271300-
WESTERN UPPER MICHIGAN

CITY           SKY/WX    TMP DP  RH WIND       PRES   REMARKS
IRON MOUNTAIN  SUNNY     37  27  67 NW8       30.11S WCI  31
6HR MIN TEMP:  33; 6HR MAX TEMP:  39;

HOUGHTON       SUNNY     35  30  82 W9        30.16R WCI  28
6HR MIN TEMP:  31; 6HR MAX TEMP:  35;

COPPER HARBOR    N/A     39  30  70 N8        30.17R WCI  33
6HR MIN TEMP:  35; 6HR MAX TEMP:  41;

IRONWOOD       SUNNY     28  27  93 CALM      30.19R
6HR MIN TEMP:  27; 6HR MAX TEMP:  30;

$$

ABBREVIATIONS USED IN REMARKS
   TC - TEMPERATURE IN CELSIUS
  WCI - WIND CHILL INDEX
   HX - HEAT INDEX
  VSB - VISIBILITY



USA.gov is the U.S. government's official web portal to all federal, state and local government web resources and services.